Regional Weather Roundup
Issued by NWS

Home | Current Version | Previous Version | Graphics & Text | Print | Product List | Glossary On
Versions: 1 2 3 4 5 6 7 8 9 10 11 12 13 14 15 16 17 18 19 20 21 22 23 24 25 26 27 28 29 30 31 32 33 34 35 36 37 38 39 40 41 42 43 44 45 46 47 48 49 50
000
ASUS43 KFSD 220710
RWRSD

WEATHER ROUNDUP FOR SOUTH DAKOTA
NATIONAL WEATHER SERVICE SIOUX FALLS SD
200 AM CDT THU JUN 22 2017

NOTE: "FAIR" INDICATES FEW OR NO CLOUDS BELOW 12,000 FEET WITH NO
SIGNIFICANT WEATHER AND/OR OBSTRUCTIONS TO VISIBILITY.


SDZ001>005-009-010-012>017-220800-
NORTHWEST AND NORTH CENTRAL SOUTH DAKOTA

CITY           SKY/WX    TMP DP  RH WIND       PRES   REMARKS
BUFFALO          N/A     62  51  67 E8        29.72R
FAITH            N/A     58  54  86 E7        29.79R
MOBRIDGE       TSTM      61  52  72 E6        29.70S
$$

SDZ012>016-024>037-041>051-057-063-072>074-220800-
SOUTHWEST AND SOUTH CENTRAL SOUTH DAKOTA

CITY           SKY/WX    TMP DP  RH WIND       PRES   REMARKS
RAPID CTY ARPT CLOUDY    64  49  57 E6        29.80R
PIERRE         CLOUDY    69  49  48 NE16G25   29.67F
CUSTER         CLOUDY    62  41  46 NE12      29.91S
ELLSWORTH AFB  CLOUDY    68  49  51 N12       29.84R
PHILIP         CLEAR     66  54  65 NE8       29.73R
PINE RIDGE     PTCLDY    66  59  78 E10       29.72F
SPEARFISH      FAIR      57  54  88 E7        29.84R
WINNER         FAIR      72  62  71 NE13      29.68F
$$

SDZ004>011-016>023-039-040-220800-
NORTHEAST SOUTH DAKOTA

CITY           SKY/WX    TMP DP  RH WIND       PRES   REMARKS
ABERDEEN       LGT RAIN  66  53  63 N10       29.75R
WATERTOWN      CLOUDY    67  53  61 N10       29.71S
BROOKINGS      PTCLDY    70  64  81 NE9       29.68F
SISSETON         N/A     66  56  70 NW7       29.69F
$$

SDZ017-020-022-023-036>040-048>070-220800-
SOUTHEAST SOUTH DAKOTA

CITY           SKY/WX    TMP DP  RH WIND       PRES   REMARKS
SIOUX FALLS    CLEAR     72  70  93 E7        29.64F
HURON          CLOUDY    72  56  57 NE13      29.67S
CHAMBERLAIN    PTCLDY    73  61  64 NE18G24   29.67F
MITCHELL       CLEAR     71  68  90 E3        29.63F
YANKTON        CLOUDY    72  70  93 CALM      29.65S
$$

ABBREVIATIONS USED IN REMARKS
   TC - TEMPERATURE IN CELSIUS
  WCI - WIND CHILL INDEX
   HX - HEAT INDEX
  VSB - VISIBILITY





USA.gov is the U.S. government's official web portal to all federal, state and local government web resources and services.